User: anonymous   Login
Location: Unspecified
(0.0000°N, 0.0000°E)
Time: 00:11:14
(UTC+00:00)
Language:

STARLINK-4317 - Orbit

View from above orbital plane
View from above orbital plane
View from above satellite
View from above satellite

Ground track
Ground track

The orbit is defined by the following mean orbital elements,

1 53058U          26145.46765194 +.00000000 +00000-0 -48071-4 0 00009
2 53058  97.4470 325.4592 0002568 104.9250 255.2261 15.05656350    05
Epoch (UTC): 25 May 2026 11:13:25
Eccentricity: 0.0002568
inclination: 97.4470°
perigee height: 548 km
apogee height: 551 km
right ascension of ascending node: 325.4592°
argument of perigee: 104.9250°
revolutions per day: 15.05656350
mean anomaly at epoch: 255.2261°

The dashed part of the orbit path shows where the satellite is in the earth's shadow,  

DLR